Flag for Japan Weather past 2 weeks in Hamamatsu, Japan

Now
58 °F

Cool.


Feels Like: 58 °F
Forecast: 58 / 66 °F
Wind: 6 mph from Northeast

Location: Omaezaki

Current Time: Apr 20, 2015 at 1:32:38 AM

Latest Report: Apr 20, 2015 at 12:00 AM


Visibility: 7 mi

Pressure: 30.01 "Hg

Humidity: 91%

Dew point: 56 °F

Location of HamamatsuLocation

Historic Weather in Hamamatsu — Graph

°F

Hamamatsu temperature yesterday

Maximum temperature yesterday: 64 °F (at 2:00 PM)
Minimum temperature yesterday: 53 °F (at 5:00 AM)
Average temperature yesterday: 59 °F

Past Weeks' High & Low Weather Summary

 TemperatureHumidityPressure
High68 °F (Apr 6, 2:00 PM)100% (Apr 5, 7:00 PM)30.39 "Hg (Apr 5, 7:00 PM)
Low46 °F (Apr 9, 12:00 AM)34% (Apr 17, 6:00 PM)29.61 "Hg (Apr 15, 2:00 PM)
Average56 °F80%30.03 "Hg
* Reported Midnight between Apr 4 and Apr 5 — Midnight between Apr 19 and Apr 20, Hamamatsu, Weather by CustomWeather, © 2015

Note: Actual official high and low records may vary slightly from our data, if they occured in-between our weather recording intervals... More about our weather records

Advertising

Hamamatsu weather history for previous 24 hours

 ConditionsComfort  
Time TempWeatherWind HumidityBarometerVisibility
12:00 AM
Mon, Apr 20
58 °FCool.6 mph91%30.01 "Hg7 mi
11:00 PM
Sun, Apr 19
59 °FCool.3 mph92%30.01 "Hg8 mi
10:00 PM60 °FCool.3 mph88%30.01 "Hg10 mi
9:00 PM61 °FCool.3 mph80%30.03 "Hg12 mi
8:00 PM60 °FCool.2 mph78%30.03 "Hg12 mi
7:00 PM61 °FCool.3 mph66%30.01 "Hg12 mi
6:00 PM62 °FCool.3 mph71%30.01 "Hg12 mi
5:00 PM62 °FCool.5 mph69%30.00 "Hg12 mi
4:00 PM62 °FMild.7 mph65%30.01 "Hg12 mi
3:00 PM61 °FCool.7 mph69%30.01 "Hg12 mi
2:00 PM64 °FMild.7 mph59%30.01 "Hg12 mi
1:00 PM62 °FCool.7 mph67%30.03 "Hg12 mi
12:00 PM60 °FLight rain. Cloudy.7 mph80%30.04 "Hg12 mi
11:00 AM60 °FLight rain. Cloudy.6 mph74%30.07 "Hg12 mi
10:00 AM62 °FCool.5 mph61%30.07 "Hg12 mi
9:00 AM60 °FCool.3 mph65%30.07 "Hg12 mi
8:00 AM59 °FCool.3 mph67%30.07 "Hg12 mi
7:00 AM56 °FCool.3 mph68%30.06 "Hg12 mi
6:00 AM55 °FCool.5 mph80%30.05 "Hg12 mi
5:00 AM53 °FCool.3 mph76%30.05 "Hg12 mi
4:00 AM54 °FCool.8 mph72%30.03 "Hg12 mi
3:00 AM55 °FCool.9 mph76%30.03 "Hg12 mi
2:00 AM54 °FCool.9 mph68%30.06 "Hg12 mi
1:00 AM55 °FCool.8 mph66%30.07 "Hg12 mi
Weather by CustomWeather, © 2015

See weather overviewHow to use our weather pages